contact:dominique.lefevre@mio.osupytheas.fr, maurice.libes@osupytheas.fr, didier.mallarino@osupytheas.fr
Project:EMSO http://www.emso-fr.org/EMSO-France
Depth: 2436.0 m
Title:EMSO Ligure Ouest : Data MII capteur AQUADOPP
Date,Latitude,Longitude,X_East,Y_North,Z_Up,Amplitude_X,Amplitude_Y,Amplitude_Z,Batterie,SoundSpeed,Heading,Pitch,Roll,Pressure,TIS,Speed,Direction
, degrees North, degrees East, m.s-1, m.s-1,m.s-1, 1, 1, 1, Volt, m.s-1, degree, degree, degree, dbar, degree_C, m.s-1, degree
2020-02-21T00:04:03,42.805,6.029,0.021,-0.027,-0.04,103.0,106.0,101.0,13.4,1505.2,325.4,-0.7,1.9,2470.176,13.3,0.034,142.1
2020-02-21T00:07:03,42.805,6.029,0.009,-0.013,-0.04,102.0,105.0,100.0,13.4,1505.3,327.9,-0.7,1.8,2470.172,13.31,0.015,145.3
2020-02-21T00:10:03,42.805,6.029,0.012,-0.032,-0.067,103.0,106.0,102.0,13.4,1505.3,326.5,-0.7,1.9,2470.128,13.32,0.034,159.4
2020-02-21T00:13:03,42.805,6.029,0.016,-0.022,-0.039,103.0,106.0,99.0,13.3,1505.3,327.9,-0.7,1.9,2470.145,13.32,0.027,144.0
2020-02-21T00:16:03,42.805,6.029,0.029,0.0,-0.024,104.0,105.0,100.0,13.3,1505.3,325.5,-0.7,1.8,2470.176,13.32,0.028,90.0
2020-02-21T00:19:03,42.805,6.029,0.043,0.005,-0.018,106.0,105.0,102.0,13.4,1505.3,328.0,-0.7,1.8,2470.13,13.32,0.043,83.4
2020-02-21T00:22:03,42.805,6.029,0.023,-0.014,-0.05,103.0,105.0,101.0,13.4,1505.3,323.2,-0.7,1.8,2470.106,13.32,0.026,121.3
2020-02-21T00:25:03,42.805,6.029,0.006,0.0,-0.03,103.0,105.0,101.0,13.4,1505.3,327.1,-0.7,1.8,2470.151,13.32,0.006,90.0
2020-02-21T00:28:03,42.805,6.029,0.036,-0.005,-0.03,105.0,104.0,101.0,13.4,1505.3,324.5,-0.7,1.8,2470.161,13.32,0.036,97.9
2020-02-21T00:31:03,42.805,6.029,0.007,-0.005,-0.037,105.0,107.0,101.0,13.4,1505.3,326.5,-0.7,1.8,2470.148,13.32,0.008,125.5
2020-02-21T00:34:03,42.805,6.029,0.026,0.011,-0.03,106.0,107.0,101.0,13.4,1505.3,323.8,-0.7,1.8,2470.151,13.33,0.028,67.1
2020-02-21T00:37:03,42.805,6.029,0.044,-0.034,-0.022,105.0,106.0,102.0,13.4,1505.3,326.2,-0.7,1.8,2470.148,13.33,0.055,127.7
2020-02-21T00:40:03,42.805,6.029,0.025,-0.014,-0.038,103.0,104.0,102.0,13.4,1505.3,324.0,-0.7,1.9,2470.156,13.32,0.028,119.3
2020-02-21T00:43:03,42.805,6.029,0.038,-0.006,-0.035,105.0,105.0,101.0,13.4,1505.3,325.3,-0.7,1.8,2470.139,13.32,0.038,99.0
2020-02-21T00:46:03,42.805,6.029,0.01,-0.018,-0.056,104.0,105.0,101.0,13.4,1505.3,325.9,-0.7,1.8,2470.143,13.33,0.02,150.9
2020-02-21T00:49:03,42.805,6.029,0.041,-0.006,-0.01,105.0,104.0,101.0,13.4,1505.3,327.5,-0.7,1.8,2470.127,13.32,0.041,98.3
2020-02-21T00:52:03,42.805,6.029,0.009,-0.008,-0.034,103.0,105.0,100.0,13.3,1505.3,325.0,-0.7,1.8,2470.103,13.32,0.012,131.6
2020-02-21T00:55:03,42.805,6.029,0.042,-0.017,-0.015,104.0,106.0,100.0,13.4,1505.3,324.8,-0.7,1.8,2470.123,13.32,0.045,112.0
2020-02-21T00:58:03,42.805,6.029,0.037,-0.016,-0.038,104.0,104.0,102.0,13.4,1505.3,327.4,-0.7,1.8,2470.161,13.32,0.04,113.4
2020-02-21T01:04:03,42.805,6.029,0.041,-0.003,-0.014,105.0,105.0,102.0,13.4,1505.2,325.2,-0.7,1.8,2470.157,13.3,0.041,94.2
2020-02-21T01:07:03,42.805,6.029,0.03,-0.001,-0.009,104.0,105.0,101.0,13.4,1505.3,328.6,-0.7,1.8,2470.183,13.31,0.03,91.9
2020-02-21T01:10:03,42.805,6.029,0.047,-0.018,-0.01,105.0,106.0,102.0,13.4,1505.3,327.0,-0.7,1.9,2470.151,13.32,0.05,111.0
2020-02-21T01:13:03,42.805,6.029,0.01,-0.005,-0.032,104.0,106.0,102.0,13.3,1505.3,323.0,-0.7,1.8,2470.152,13.32,0.011,116.6
2020-02-21T01:16:03,42.805,6.029,0.039,-0.026,-0.016,103.0,105.0,101.0,13.3,1505.3,328.2,-0.7,1.8,2470.174,13.32,0.046,123.7
2020-02-21T01:19:03,42.805,6.029,0.018,-0.008,-0.035,103.0,106.0,101.0,13.4,1505.3,324.4,-0.7,1.8,2470.197,13.32,0.019,114.0
2020-02-21T01:22:03,42.805,6.029,0.031,-0.017,-0.014,105.0,104.0,101.0,13.3,1505.3,324.0,-0.7,1.8,2470.171,13.32,0.035,118.7
2020-02-21T01:25:03,42.805,6.029,0.013,0.006,-0.027,105.0,106.0,103.0,13.3,1505.3,328.2,-0.7,1.8,2470.185,13.32,0.014,65.2
2020-02-21T01:28:03,42.805,6.029,0.011,-0.022,-0.041,103.0,106.0,101.0,13.4,1505.3,324.7,-0.7,1.8,2470.17,13.32,0.024,153.4
2020-02-21T01:31:03,42.805,6.029,0.028,-0.015,-0.018,104.0,105.0,101.0,13.4,1505.3,324.8,-0.7,1.8,2470.165,13.32,0.031,118.2
2020-02-21T01:34:03,42.805,6.029,0.018,-0.031,-0.034,103.0,106.0,101.0,13.3,1505.3,323.9,-0.7,1.8,2470.192,13.32,0.035,149.9
2020-02-21T01:37:03,42.805,6.029,0.042,-0.022,-0.024,105.0,104.0,101.0,13.3,1505.3,325.3,-0.7,1.8,2470.14,13.32,0.047,117.6
2020-02-21T01:40:03,42.805,6.029,0.014,-0.008,-0.014,104.0,105.0,101.0,13.4,1505.3,326.4,-0.7,1.8,2470.187,13.32,0.016,119.7
2020-02-21T01:43:03,42.805,6.029,0.016,-0.026,-0.007,105.0,105.0,100.0,13.3,1505.3,323.8,-0.7,1.8,2470.185,13.32,0.03,148.4
2020-02-21T01:46:03,42.805,6.029,0.019,-0.022,-0.002,103.0,106.0,101.0,13.4,1505.3,328.7,-0.7,1.9,2470.147,13.33,0.029,139.2
2020-02-21T01:49:03,42.805,6.029,0.015,-0.005,0.001,105.0,105.0,101.0,13.4,1505.3,324.4,-0.7,1.8,2470.135,13.33,0.015,108.4
2020-02-21T01:52:03,42.805,6.029,0.01,-0.009,-0.036,104.0,105.0,101.0,13.3,1505.3,324.3,-0.7,1.8,2470.118,13.33,0.013,132.0
2020-02-21T01:55:03,42.805,6.029,0.027,-0.016,-0.002,104.0,106.0,101.0,13.3,1505.3,327.8,-0.7,1.8,2470.134,13.33,0.031,120.7
2020-02-21T01:58:03,42.805,6.029,0.037,-0.005,-0.009,105.0,108.0,102.0,13.3,1505.3,326.5,-0.7,1.8,2470.151,13.33,0.037,97.7
2020-02-21T02:04:03,42.805,6.029,0.014,-0.016,-0.064,105.0,108.0,102.0,13.4,1505.3,327.1,-0.7,1.8,2470.198,13.31,0.021,138.8
2020-02-21T02:07:03,42.805,6.029,0.002,-0.022,-0.029,104.0,105.0,102.0,13.4,1505.3,327.5,-0.7,1.8,2470.161,13.31,0.022,174.8
2020-02-21T02:10:03,42.805,6.029,0.028,-0.015,-0.024,104.0,106.0,102.0,13.3,1505.3,326.3,-0.7,1.8,2470.192,13.32,0.031,118.2
2020-02-21T02:13:03,42.805,6.029,0.027,-0.018,-0.007,104.0,105.0,102.0,13.3,1505.3,325.6,-0.7,1.8,2470.155,13.32,0.032,123.7
2020-02-21T02:16:03,42.805,6.029,0.02,-0.023,-0.035,104.0,107.0,101.0,13.4,1505.3,323.1,-0.7,1.8,2470.198,13.32,0.03,139.0
2020-02-21T02:19:03,42.805,6.029,0.0,-0.01,-0.042,106.0,107.0,101.0,13.4,1505.3,324.8,-0.7,1.8,2470.192,13.32,0.01,180.0
2020-02-21T02:22:03,42.805,6.029,0.011,-0.021,-0.028,105.0,109.0,102.0,13.4,1505.3,322.8,-0.7,1.8,2470.213,13.32,0.023,152.4
2020-02-21T02:25:03,42.805,6.029,0.043,-0.034,-0.029,105.0,106.0,101.0,13.4,1505.3,325.3,-0.7,1.9,2470.182,13.32,0.054,128.3
2020-02-21T02:28:03,42.805,6.029,-0.002,-0.007,-0.03,105.0,106.0,101.0,13.4,1505.3,327.9,-0.7,1.8,2470.146,13.33,0.007,195.9
2020-02-21T02:31:03,42.805,6.029,-0.026,-0.017,-0.059,104.0,108.0,101.0,13.4,1505.3,323.5,-0.7,1.8,2470.183,13.33,0.031,236.8
2020-02-21T02:34:03,42.805,6.029,-0.018,-0.014,-0.047,104.0,107.0,101.0,13.4,1505.3,325.3,-0.7,1.8,2470.213,13.33,0.022,232.1
2020-02-21T02:37:03,42.805,6.029,0.025,-0.019,-0.035,106.0,107.0,102.0,13.4,1505.3,324.0,-0.7,1.9,2470.193,13.33,0.031,127.2
2020-02-21T02:40:03,42.805,6.029,0.012,-0.008,-0.018,103.0,107.0,101.0,13.4,1505.3,325.7,-0.7,1.8,2470.185,13.33,0.014,123.7
2020-02-21T02:43:03,42.805,6.029,-0.01,-0.025,-0.067,104.0,108.0,103.0,13.3,1505.3,325.9,-0.7,1.8,2470.207,13.33,0.026,201.8
2020-02-21T02:46:03,42.805,6.029,0.02,-0.007,-0.049,106.0,107.0,103.0,13.4,1505.3,324.1,-0.7,1.8,2470.182,13.33,0.021,109.3
2020-02-21T02:49:03,42.805,6.029,0.007,0.0,-0.029,104.0,108.0,101.0,13.3,1505.3,325.8,-0.7,1.8,2470.221,13.33,0.007,90.0
2020-02-21T02:52:03,42.805,6.029,0.002,-0.031,-0.056,104.0,106.0,101.0,13.4,1505.3,325.0,-0.7,1.8,2470.214,13.33,0.031,176.3
2020-02-21T02:55:03,42.805,6.029,0.005,-0.016,-0.057,105.0,106.0,102.0,13.4,1505.3,326.8,-0.7,1.8,2470.192,13.33,0.016,162.6
2020-02-21T02:58:03,42.805,6.029,0.034,-0.005,0.0,104.0,107.0,103.0,13.3,1505.3,324.8,-0.7,1.8,2470.22,13.33,0.034,98.4
2020-02-21T03:04:03,42.805,6.029,0.007,-0.036,-0.044,103.0,106.0,104.0,13.3,1505.3,325.0,-0.7,1.8,2470.251,13.31,0.036,169.0
2020-02-21T03:07:03,42.805,6.029,0.028,-0.001,-0.013,105.0,104.0,101.0,13.3,1505.3,326.0,-0.7,1.8,2470.217,13.31,0.028,92.0
2020-02-21T03:10:03,42.805,6.029,0.009,-0.015,-0.02,105.0,106.0,101.0,13.4,1505.3,326.2,-0.7,1.8,2470.277,13.32,0.017,149.0
2020-02-21T03:13:03,42.805,6.029,0.019,-0.006,-0.017,103.0,107.0,101.0,13.4,1505.3,324.7,-0.7,1.9,2470.247,13.32,0.019,107.5
2020-02-21T03:16:03,42.805,6.029,0.022,-0.009,-0.017,104.0,106.0,101.0,13.4,1505.3,326.0,-0.7,1.8,2470.247,13.32,0.023,112.2
2020-02-21T03:19:03,42.805,6.029,0.048,0.011,-0.006,105.0,107.0,101.0,13.4,1505.3,323.7,-0.7,1.9,2470.278,13.32,0.049,77.1
2020-02-21T03:22:03,42.805,6.029,-0.005,-0.034,-0.018,105.0,107.0,102.0,13.4,1505.3,327.5,-0.7,1.8,2470.234,13.33,0.034,188.4
2020-02-21T03:25:03,42.805,6.029,0.003,-0.01,-0.013,105.0,108.0,102.0,13.4,1505.3,325.8,-0.7,1.8,2470.249,13.33,0.01,163.3
2020-02-21T03:28:03,42.805,6.029,0.012,-0.025,-0.03,104.0,109.0,102.0,13.4,1505.3,324.8,-0.7,1.9,2470.226,13.33,0.027,154.4
2020-02-21T03:31:03,42.805,6.029,0.019,-0.023,-0.034,105.0,107.0,104.0,13.4,1505.3,323.2,-0.7,1.8,2470.26,13.33,0.029,140.4
2020-02-21T03:34:03,42.805,6.029,0.012,0.0,-0.03,105.0,106.0,102.0,13.3,1505.3,323.3,-0.7,1.8,2470.239,13.33,0.012,90.0
2020-02-21T03:37:03,42.805,6.029,0.009,-0.024,-0.042,104.0,109.0,102.0,13.3,1505.3,326.0,-0.7,1.9,2470.254,13.33,0.025,159.4
2020-02-21T03:40:03,42.805,6.029,0.018,-0.012,-0.031,104.0,106.0,102.0,13.3,1505.3,328.3,-0.7,1.8,2470.285,13.33,0.021,123.7
2020-02-21T03:43:03,42.805,6.029,0.017,-0.009,-0.04,105.0,106.0,101.0,13.4,1505.3,324.5,-0.7,1.8,2470.238,13.33,0.019,117.9
2020-02-21T03:46:03,42.805,6.029,-0.006,-0.018,-0.06,104.0,106.0,101.0,13.3,1505.3,325.4,-0.7,1.8,2470.268,13.33,0.018,198.4
2020-02-21T03:52:03,42.805,6.029,0.013,-0.025,-0.048,105.0,107.0,102.0,13.4,1505.3,325.0,-0.8,1.8,2470.295,13.31,0.028,152.5
2020-02-21T03:55:03,42.805,6.029,0.0,-0.017,-0.039,105.0,106.0,102.0,13.4,1505.3,328.0,-0.7,1.8,2470.285,13.31,0.017,180.0
2020-02-21T03:58:03,42.805,6.029,-0.001,-0.011,-0.014,105.0,105.0,102.0,13.4,1505.3,325.6,-0.7,1.9,2470.254,13.32,0.011,185.2
2020-02-21T04:04:03,42.805,6.029,0.02,-0.005,-0.001,106.0,105.0,101.0,13.4,1505.2,324.8,-0.7,1.8,2470.308,13.3,0.02,104.0
2020-02-21T04:07:03,42.805,6.029,0.019,0.009,-0.042,106.0,107.0,100.0,13.4,1505.3,323.4,-0.7,1.8,2470.321,13.31,0.021,64.7
2020-02-21T04:10:03,42.805,6.029,0.014,-0.006,-0.056,104.0,106.0,101.0,13.4,1505.3,327.6,-0.7,1.8,2470.314,13.32,0.015,113.2
2020-02-21T04:13:03,42.805,6.029,0.004,-0.023,-0.059,105.0,106.0,101.0,13.4,1505.3,325.0,-0.7,1.8,2470.341,13.32,0.023,170.1
2020-02-21T04:16:03,42.805,6.029,0.007,0.003,-0.032,105.0,107.0,100.0,13.4,1505.3,326.2,-0.7,1.8,2470.321,13.32,0.007,66.8
2020-02-21T04:19:03,42.805,6.029,0.001,-0.013,-0.034,106.0,107.0,101.0,13.3,1505.3,325.0,-0.7,1.8,2470.309,13.33,0.013,175.6
2020-02-21T04:22:03,42.805,6.029,0.031,-0.002,-0.031,105.0,107.0,102.0,13.4,1505.3,327.9,-0.7,1.8,2470.308,13.33,0.031,93.7
2020-02-21T04:25:03,42.805,6.029,0.003,0.0,-0.011,104.0,107.0,101.0,13.3,1505.3,326.4,-0.7,1.9,2470.296,13.33,0.003,90.0
2020-02-21T04:28:03,42.805,6.029,-0.018,0.0,-0.072,104.0,110.0,101.0,13.4,1505.3,324.3,-0.8,1.9,2470.304,13.33,0.018,270.0
2020-02-21T04:31:03,42.805,6.029,-0.008,-0.005,-0.033,103.0,108.0,103.0,13.3,1505.3,325.4,-0.8,1.8,2470.307,13.33,0.009,238.0
2020-02-21T04:34:03,42.805,6.029,-0.015,-0.001,-0.04,104.0,107.0,102.0,13.4,1505.3,326.4,-0.7,1.8,2470.355,13.33,0.015,266.2
2020-02-21T04:37:03,42.805,6.029,-0.001,-0.016,-0.033,104.0,106.0,101.0,13.4,1505.3,323.8,-0.7,1.8,2470.331,13.33,0.016,183.6
2020-02-21T04:40:03,42.805,6.029,-0.007,0.006,-0.052,103.0,107.0,101.0,13.4,1505.3,325.4,-0.7,1.8,2470.321,13.33,0.009,310.6
2020-02-21T04:43:03,42.805,6.029,0.031,0.004,-0.009,102.0,107.0,101.0,13.4,1505.3,323.8,-0.7,1.9,2470.333,13.33,0.031,82.7
2020-02-21T04:46:03,42.805,6.029,0.007,-0.008,-0.011,104.0,107.0,101.0,13.3,1505.3,324.4,-0.7,1.8,2470.322,13.33,0.01,138.8
2020-02-21T04:49:03,42.805,6.029,0.019,0.013,0.007,103.0,106.0,101.0,13.4,1505.3,324.1,-0.7,1.8,2470.338,13.33,0.023,55.6
2020-02-21T04:52:03,42.805,6.029,0.018,-0.004,-0.04,104.0,107.0,102.0,13.4,1505.3,324.8,-0.7,1.8,2470.302,13.33,0.018,102.5
2020-02-21T04:55:03,42.805,6.029,0.014,-0.005,-0.044,103.0,106.0,102.0,13.3,1505.3,325.0,-0.7,1.8,2470.326,13.33,0.014,109.6
2020-02-21T04:58:03,42.805,6.029,0.002,-0.004,-0.057,104.0,105.0,102.0,13.4,1505.3,326.0,-0.7,1.8,2470.316,13.33,0.004,153.4
2020-02-21T05:04:03,42.805,6.029,0.009,0.029,-0.035,106.0,106.0,101.0,13.4,1505.3,326.6,-0.7,1.8,2470.364,13.31,0.03,17.2
2020-02-21T05:07:03,42.805,6.029,0.024,-0.009,-0.03,102.0,107.0,101.0,13.4,1505.3,327.7,-0.7,1.8,2470.357,13.32,0.025,110.6
2020-02-21T05:10:03,42.805,6.029,0.0,0.02,-0.03,106.0,106.0,101.0,13.4,1505.3,326.2,-0.7,1.8,2470.363,13.33,0.02,0.0
2020-02-21T05:13:03,42.805,6.029,0.005,0.007,-0.032,106.0,107.0,102.0,13.3,1505.3,328.8,-0.7,1.8,2470.36,13.33,0.008,35.5
2020-02-21T05:16:03,42.805,6.029,0.027,0.01,-0.026,102.0,106.0,101.0,13.3,1505.3,326.9,-0.7,1.8,2470.338,13.33,0.028,69.7
2020-02-21T05:22:03,42.805,6.029,-0.002,0.01,-0.042,104.0,107.0,101.0,13.3,1505.3,324.5,-0.7,1.8,2470.428,13.31,0.01,348.7
2020-02-21T05:25:03,42.805,6.029,0.013,0.011,-0.042,107.0,107.0,102.0,13.4,1505.3,323.6,-0.8,1.8,2470.339,13.32,0.017,49.8
2020-02-21T05:28:03,42.805,6.029,0.011,0.009,-0.013,104.0,107.0,101.0,13.4,1505.3,324.2,-0.7,1.9,2470.364,13.32,0.014,50.7
2020-02-21T05:31:03,42.805,6.029,0.0,-0.007,-0.053,104.0,107.0,103.0,13.3,1505.3,325.5,-0.7,1.8,2470.353,13.33,0.007,180.0
2020-02-21T05:34:03,42.805,6.029,0.0,-0.006,-0.004,104.0,106.0,101.0,13.4,1505.3,325.6,-0.7,1.8,2470.342,13.33,0.006,180.0
2020-02-21T05:37:03,42.805,6.029,0.0,-0.016,-0.017,106.0,106.0,102.0,13.4,1505.3,327.6,-0.7,1.8,2470.36,13.33,0.016,180.0
2020-02-21T05:40:03,42.805,6.029,0.003,0.017,-0.026,104.0,107.0,101.0,13.3,1505.3,323.3,-0.7,1.8,2470.378,13.33,0.017,10.0
2020-02-21T05:43:03,42.805,6.029,-0.038,-0.001,-0.067,103.0,106.0,101.0,13.4,1505.3,327.0,-0.7,1.8,2470.38,13.33,0.038,268.5
2020-02-21T05:46:03,42.805,6.029,-0.008,0.008,-0.034,103.0,106.0,101.0,13.4,1505.3,324.8,-0.7,1.9,2470.374,13.33,0.011,315.0
2020-02-21T05:49:03,42.805,6.029,0.003,0.006,-0.042,104.0,107.0,102.0,13.3,1505.3,324.6,-0.7,1.8,2470.343,13.33,0.006,26.6
2020-02-21T05:52:03,42.805,6.029,0.015,0.0,-0.044,105.0,107.0,102.0,13.3,1505.3,327.1,-0.7,1.8,2470.321,13.33,0.015,90.0
2020-02-21T05:58:03,42.805,6.029,0.026,0.016,0.001,104.0,105.0,102.0,13.4,1505.3,323.3,-0.7,1.8,2470.362,13.32,0.03,58.4
2020-02-21T06:04:03,42.805,6.029,0.032,0.008,-0.021,102.0,106.0,101.0,13.4,1505.3,323.3,-0.8,1.8,2470.407,13.31,0.032,76.0
2020-02-21T06:07:03,42.805,6.029,0.033,0.009,-0.002,105.0,108.0,101.0,13.4,1505.3,324.5,-0.7,1.9,2470.364,13.32,0.034,74.7
2020-02-21T06:10:03,42.805,6.029,0.017,0.001,-0.029,106.0,107.0,100.0,13.3,1505.3,324.2,-0.7,1.9,2470.401,13.32,0.017,86.6
2020-02-21T06:13:03,42.805,6.029,0.007,-0.005,-0.026,103.0,106.0,102.0,13.3,1505.3,327.0,-0.7,1.8,2470.373,13.33,0.008,125.5
2020-02-21T06:16:03,42.805,6.029,0.001,0.012,-0.031,104.0,107.0,101.0,13.3,1505.3,328.1,-0.7,1.8,2470.404,13.33,0.012,4.8
2020-02-21T06:19:03,42.805,6.029,0.016,0.003,-0.033,102.0,107.0,100.0,13.3,1505.3,325.0,-0.7,1.8,2470.395,13.33,0.016,79.4
2020-02-21T06:22:03,42.805,6.029,0.013,0.019,-0.031,103.0,107.0,101.0,13.4,1505.4,326.5,-0.7,1.8,2470.357,13.34,0.023,34.4
2020-02-21T06:25:03,42.805,6.029,0.016,-0.004,-0.04,105.0,105.0,100.0,13.4,1505.4,325.6,-0.7,1.8,2470.372,13.34,0.016,104.0
2020-02-21T06:28:03,42.805,6.029,0.028,0.015,0.0,104.0,106.0,101.0,13.3,1505.4,326.3,-0.7,1.8,2470.384,13.34,0.031,61.8
2020-02-21T06:31:03,42.805,6.029,0.0,0.013,-0.045,104.0,106.0,100.0,13.3,1505.4,324.0,-0.7,1.8,2470.353,13.34,0.013,0.0
2020-02-21T06:34:03,42.805,6.029,0.017,0.013,-0.02,105.0,106.0,102.0,13.4,1505.4,324.5,-0.7,1.8,2470.345,13.34,0.021,52.6
2020-02-21T06:37:03,42.805,6.029,0.01,0.009,-0.036,104.0,108.0,103.0,13.3,1505.4,323.5,-0.7,1.8,2470.365,13.34,0.013,48.0
2020-02-21T06:40:03,42.805,6.029,0.004,0.033,-0.011,104.0,106.0,103.0,13.4,1505.4,325.0,-0.7,1.8,2470.317,13.34,0.033,6.9
2020-02-21T06:43:03,42.805,6.029,0.012,0.01,-0.021,105.0,109.0,102.0,13.3,1505.4,323.0,-0.7,1.8,2470.395,13.34,0.015,50.2
2020-02-21T06:46:03,42.805,6.029,-0.006,0.01,-0.019,104.0,109.0,102.0,13.4,1505.4,324.4,-0.7,1.8,2470.344,13.34,0.011,329.0
2020-02-21T06:49:03,42.805,6.029,0.01,-0.009,-0.034,105.0,109.0,102.0,13.4,1505.4,323.3,-0.7,1.8,2470.339,13.34,0.013,132.0
2020-02-21T06:52:03,42.805,6.029,0.017,0.019,-0.036,103.0,107.0,101.0,13.4,1505.4,326.3,-0.7,1.8,2470.385,13.34,0.025,41.8
2020-02-21T06:55:03,42.805,6.029,-0.035,0.007,-0.058,104.0,106.0,100.0,13.4,1505.4,325.5,-0.7,1.8,2470.36,13.34,0.035,281.3
2020-02-21T06:58:03,42.805,6.029,0.02,0.014,-0.026,102.0,108.0,101.0,13.4,1505.4,326.3,-0.7,1.8,2470.333,13.34,0.024,55.0
2020-02-21T07:04:03,42.805,6.029,0.005,-0.011,-0.065,103.0,106.0,101.0,13.3,1505.3,325.8,-0.8,1.8,2470.379,13.32,0.012,155.6
2020-02-21T07:07:03,42.805,6.029,0.001,0.021,-0.044,103.0,108.0,101.0,13.4,1505.3,325.6,-0.8,1.8,2470.413,13.32,0.021,2.7
2020-02-21T07:10:03,42.805,6.029,0.012,0.018,-0.024,104.0,107.0,101.0,13.4,1505.3,323.8,-0.7,1.8,2470.37,13.33,0.021,33.7
2020-02-21T07:13:03,42.805,6.029,-0.004,0.001,-0.054,105.0,108.0,101.0,13.3,1505.3,327.4,-0.7,1.8,2470.339,13.33,0.004,284.0
2020-02-21T07:16:03,42.805,6.029,0.032,0.025,-0.044,104.0,108.0,101.0,13.4,1505.3,327.2,-0.7,1.9,2470.364,13.33,0.04,52.0
2020-02-21T07:19:03,42.805,6.029,0.01,0.017,-0.035,106.0,106.0,102.0,13.3,1505.3,323.5,-0.8,1.8,2470.356,13.33,0.019,30.5
2020-02-21T07:22:03,42.805,6.029,0.028,0.016,0.007,103.0,108.0,101.0,13.4,1505.3,328.2,-0.7,1.8,2470.405,13.33,0.032,60.3
2020-02-21T07:25:03,42.805,6.029,0.03,0.019,-0.017,106.0,106.0,103.0,13.4,1505.3,328.0,-0.7,1.8,2470.352,13.33,0.035,57.7
2020-02-21T07:28:03,42.805,6.029,0.038,0.013,-0.035,104.0,108.0,100.0,13.3,1505.3,326.6,-0.7,1.9,2470.338,13.33,0.04,71.1
2020-02-21T07:31:03,42.805,6.029,0.028,-0.003,-0.026,103.0,108.0,102.0,13.3,1505.3,323.2,-0.7,1.8,2470.329,13.33,0.028,96.1
2020-02-21T07:34:03,42.805,6.029,0.047,0.006,0.001,104.0,106.0,101.0,13.4,1505.3,327.8,-0.7,1.8,2470.38,13.33,0.047,82.7
2020-02-21T07:37:03,42.805,6.029,0.014,0.001,-0.026,105.0,108.0,100.0,13.3,1505.3,324.9,-0.7,1.8,2470.34,13.33,0.014,85.9
2020-02-21T07:40:03,42.805,6.029,0.012,0.001,-0.028,104.0,106.0,102.0,13.4,1505.3,323.3,-0.7,1.8,2470.374,13.33,0.012,85.2
2020-02-21T07:43:03,42.805,6.029,0.028,0.021,-0.017,103.0,107.0,102.0,13.4,1505.3,327.3,-0.7,1.8,2470.322,13.33,0.035,53.1
2020-02-21T07:46:03,42.805,6.029,0.042,0.017,-0.014,106.0,107.0,101.0,13.4,1505.3,325.6,-0.7,1.8,2470.351,13.33,0.045,68.0
2020-02-21T07:49:03,42.805,6.029,0.039,-0.014,0.009,104.0,106.0,101.0,13.4,1505.3,326.8,-0.7,1.8,2470.339,13.33,0.041,109.7
2020-02-21T07:52:03,42.805,6.029,0.032,0.006,-0.028,106.0,105.0,100.0,13.3,1505.3,326.5,-0.7,1.8,2470.317,13.33,0.032,79.4
2020-02-21T07:55:03,42.805,6.029,0.043,0.021,0.035,103.0,106.0,101.0,13.4,1505.3,325.0,-0.7,1.9,2470.327,13.33,0.047,64.0
2020-02-21T07:58:03,42.805,6.029,0.057,0.001,0.018,104.0,106.0,105.0,13.4,1505.3,324.6,-0.7,1.8,2470.381,13.33,0.057,89.0
2020-02-21T08:04:03,42.805,6.029,0.038,-0.003,-0.042,104.0,107.0,101.0,13.4,1505.3,326.3,-0.7,1.8,2470.395,13.31,0.038,94.5
2020-02-21T08:07:03,42.805,6.029,0.032,0.018,-0.014,103.0,105.0,102.0,13.4,1505.3,326.6,-0.7,1.8,2470.351,13.32,0.036,60.6
2020-02-21T08:10:03,42.805,6.029,0.0,-0.002,-0.014,105.0,106.0,100.0,13.4,1505.3,327.5,-0.7,1.9,2470.397,13.32,0.002,180.0
2020-02-21T08:13:03,42.805,6.029,0.018,0.011,0.0,104.0,106.0,101.0,13.3,1505.3,325.8,-0.7,1.9,2470.369,13.33,0.021,58.6
2020-02-21T08:16:03,42.805,6.029,0.007,0.009,-0.044,103.0,106.0,100.0,13.4,1505.3,325.8,-0.8,1.8,2470.343,13.33,0.011,37.9
2020-02-21T08:19:03,42.805,6.029,0.027,0.006,0.0,104.0,105.0,101.0,13.4,1505.3,324.9,-0.7,1.8,2470.362,13.33,0.027,77.5
2020-02-21T08:22:03,42.805,6.029,0.014,0.013,-0.006,104.0,107.0,101.0,13.4,1505.3,323.9,-0.7,1.8,2470.395,13.33,0.019,47.1
2020-02-21T08:25:03,42.805,6.029,0.009,0.02,-0.021,104.0,109.0,101.0,13.4,1505.3,325.6,-0.7,1.8,2470.349,13.33,0.021,24.2
2020-02-21T08:28:03,42.805,6.029,0.012,0.002,-0.072,104.0,106.0,100.0,13.4,1505.3,326.7,-0.7,1.9,2470.348,13.33,0.012,80.5
2020-02-21T08:31:03,42.805,6.029,0.011,0.009,-0.057,103.0,106.0,101.0,13.4,1505.3,324.5,-0.7,1.9,2470.373,13.33,0.014,50.7
2020-02-21T08:34:03,42.805,6.029,0.017,0.001,-0.005,105.0,107.0,99.0,13.4,1505.3,323.5,-0.7,1.8,2470.347,13.33,0.017,86.6
2020-02-21T08:37:03,42.805,6.029,0.029,-0.009,-0.041,104.0,107.0,101.0,13.3,1505.3,326.3,-0.7,1.9,2470.35,13.33,0.03,107.2
2020-02-21T08:40:03,42.805,6.029,0.068,-0.004,0.021,104.0,107.0,101.0,13.4,1505.3,324.2,-0.8,1.9,2470.373,13.33,0.068,93.4
2020-02-21T08:43:03,42.805,6.029,0.021,0.014,0.001,104.0,107.0,102.0,13.4,1505.3,326.2,-0.7,1.8,2470.31,13.33,0.025,56.3
2020-02-21T08:46:03,42.805,6.029,0.027,0.012,-0.014,103.0,106.0,101.0,13.4,1505.3,324.3,-0.7,1.8,2470.324,13.33,0.029,66.0
2020-02-21T08:49:03,42.805,6.029,0.049,-0.006,-0.052,103.0,106.0,102.0,13.4,1505.3,323.2,-0.8,1.8,2470.36,13.33,0.049,97.0
2020-02-21T08:52:03,42.805,6.029,0.016,0.007,-0.021,103.0,106.0,101.0,13.4,1505.3,328.0,-0.7,1.8,2470.325,13.33,0.017,66.4
2020-02-21T08:55:03,42.805,6.029,0.058,0.008,-0.006,103.0,106.0,100.0,13.4,1505.3,325.2,-0.7,1.8,2470.314,13.33,0.058,82.2
2020-02-21T08:58:03,42.805,6.029,0.053,0.008,0.006,103.0,108.0,100.0,13.3,1505.3,324.3,-0.7,1.8,2470.297,13.33,0.053,81.4
2020-02-21T09:04:03,42.805,6.029,0.052,-0.003,-0.032,102.0,108.0,100.0,13.3,1505.3,326.7,-0.7,1.8,2470.343,13.31,0.052,93.3
2020-02-21T09:07:03,42.805,6.029,0.049,0.017,-0.006,102.0,106.0,100.0,13.3,1505.3,325.8,-0.7,1.8,2470.349,13.31,0.051,70.9
2020-02-21T09:10:03,42.805,6.029,0.05,0.01,-0.027,104.0,106.0,101.0,13.4,1505.3,324.5,-0.8,1.9,2470.318,13.32,0.05,78.7
2020-02-21T09:13:03,42.805,6.029,0.048,0.01,-0.008,102.0,106.0,101.0,13.4,1505.3,324.0,-0.7,1.9,2470.32,13.32,0.049,78.2
2020-02-21T09:16:03,42.805,6.029,0.077,0.008,0.038,104.0,105.0,100.0,13.4,1505.3,323.9,-0.7,1.8,2470.357,13.32,0.077,84.1
2020-02-21T09:19:03,42.805,6.029,0.05,-0.011,0.008,101.0,107.0,100.0,13.4,1505.3,327.2,-0.7,1.8,2470.325,13.32,0.051,102.4
2020-02-21T09:22:03,42.805,6.029,0.086,0.006,0.006,102.0,106.0,101.0,13.3,1505.3,325.0,-0.7,1.8,2470.331,13.32,0.086,86.0
2020-02-21T09:25:03,42.805,6.029,0.043,-0.004,0.003,104.0,107.0,99.0,13.4,1505.3,324.3,-0.7,1.8,2470.305,13.33,0.043,95.3
2020-02-21T09:28:03,42.805,6.029,0.047,0.002,0.006,103.0,106.0,100.0,13.4,1505.3,324.1,-0.7,1.8,2470.299,13.33,0.047,87.6
2020-02-21T09:31:03,42.805,6.029,0.072,0.005,0.0,103.0,105.0,100.0,13.4,1505.3,325.9,-0.7,1.9,2470.318,13.33,0.072,86.0
2020-02-21T09:34:03,42.805,6.029,0.053,0.015,0.027,105.0,106.0,100.0,13.4,1505.3,324.5,-0.7,1.9,2470.3,13.33,0.055,74.2
2020-02-21T09:37:03,42.805,6.029,0.052,0.007,0.008,105.0,105.0,100.0,13.4,1505.3,326.3,-0.7,1.8,2470.278,13.33,0.052,82.3
2020-02-21T09:40:03,42.805,6.029,0.062,-0.01,0.022,103.0,106.0,101.0,13.4,1505.3,326.6,-0.7,1.8,2470.316,13.33,0.062,99.2
2020-02-21T09:43:03,42.805,6.029,0.058,0.014,0.01,103.0,106.0,102.0,13.4,1505.3,323.9,-0.7,1.8,2470.332,13.33,0.059,76.4
2020-02-21T09:46:03,42.805,6.029,0.031,0.006,-0.03,104.0,108.0,100.0,13.4,1505.3,327.8,-0.7,1.8,2470.315,13.33,0.031,79.0
2020-02-21T09:49:03,42.805,6.029,0.043,0.0,0.013,104.0,106.0,102.0,13.4,1505.3,326.9,-0.7,1.8,2470.278,13.33,0.043,90.0
2020-02-21T09:52:03,42.805,6.029,0.049,-0.009,-0.011,105.0,108.0,103.0,13.4,1505.3,325.0,-0.7,1.8,2470.287,13.33,0.049,100.4
2020-02-21T09:55:03,42.805,6.029,0.051,-0.006,-0.003,105.0,106.0,101.0,13.3,1505.3,324.5,-0.7,1.8,2470.291,13.33,0.051,96.7
2020-02-21T09:58:03,42.805,6.029,0.071,0.0,0.007,104.0,107.0,103.0,13.4,1505.3,325.3,-0.7,1.8,2470.318,13.33,0.07,90.0
2020-02-21T10:04:03,42.805,6.029,0.028,-0.005,-0.053,103.0,105.0,101.0,13.4,1505.3,325.9,-0.7,1.9,2470.346,13.31,0.028,100.1
2020-02-21T10:07:03,42.805,6.029,0.053,-0.014,0.012,103.0,106.0,101.0,13.3,1505.3,327.6,-0.8,1.8,2470.318,13.31,0.054,104.8
2020-02-21T10:10:03,42.805,6.029,0.039,-0.003,-0.017,104.0,106.0,101.0,13.3,1505.3,325.6,-0.8,1.9,2470.302,13.32,0.039,94.4